{"data":{"norad_id":49083,"intl_designator":"2021-075J","name":"ONEWEB-0294","alt_names":[],"object_type":"PAYLOAD","status":"ACTIVE","operator":null,"country":"UK","launch_date":"2021-08-21","launch_site_code":"TYMSC","launch_vehicle":null,"mission":null,"orbit_class":"UNKNOWN","rcs_meters":null,"size_class":null,"mass_kg":null,"dimensions":null,"purposes":["comms"],"wikipedia_slug":null,"has_3d_model":false,"image_url":null,"decayed_at":null,"tle_current":{"epoch":"2026-09-20T04:04:07.931136Z","epoch_age_seconds":50543,"freshness":"FRESH","line1":"1 49083U 21075J   26263.16953624  .00000248  00000+0  65346-3 0  9994","line2":"2 49083  87.8984 331.8063 0001543  98.1295 262.0008 13.12444793247033","mean_motion":13.12444793,"eccentricity":0.0001543,"inclination_deg":87.8984,"raan_deg":331.8063,"arg_perigee_deg":98.1295,"mean_anomaly_deg":262.0008,"bstar":0.00065346,"rev_number":24703,"period_min":109.71890076294,"perigee_km":1212.5449536432,"apogee_km":1214.8877995952,"semimajor_km":7591.8533766192,"source":"CELESTRAK","updated_at":"2026-09-20T09:00:44.632379Z"}}}